Regional Weather Roundup
Issued by NWS Charleston, SC

Current Version | Previous Version | Graphics & Text | Print | Product List | Glossary On
Versions: 1 2 3 4 5 6 7 8 9 10 11 12 13 14 15 16 17 18 19 20 21 22 23 24 25 26 27 28 29 30 31 32 33 34 35 36 37 38 39 40 41 42 43 44 45 46 47 48 49 50
000
ASUS42 KCHS 280427
RWRCHS

REGIONAL WEATHER ROUNDUP
NATIONAL WEATHER SERVICE CHARLESTON SC
1200 AM EDT FRI APR 28 2017

NOTE: "FAIR" INDICATES FEW OR NO CLOUDS BELOW 12,000 FEET WITH NO
SIGNIFICANT WEATHER AND/OR OBSTRUCTIONS TO VISIBILITY.

NOT ALL STATIONS ARE QUALITY CONTROLLED. USE DATA WITH CAUTION...
ESPECIALLY DEWPOINT OBSERVATIONS.

SCZ027-030-031-034>040-042>050-280500-
...SOUTHEAST SOUTH CAROLINA...

CITY           SKY/WX    TMP DP  RH WIND       PRES   REMARKS
N CHARLESTON   CLOUDY    75  71  87 S12       29.95F
WATERFRONT PRK   N/A     75  73  93 S9        29.94R
JOHNS ISLAND   FAIR      75  73  94 S9G15     29.96F
PINOPOLIS        N/A     73  68  83 VRB2      29.87S
MONCKS CORNER  FAIR      72  68  88 S8        29.94F
SUMMERVILLE    FAIR      73  68  83 S6        29.95S
BEAUFORT MCAS  CLOUDY    77  74  90 S13G21    29.94F
BEAUFORT ARPT  FAIR      75  72  88 S10G17    29.94F
HILTON HEAD IS MOCLDY    75  75 100 S12G22    29.96F
WALTERBORO     PTCLDY    72  68  88 S7        29.94F
ALLENDALE      FAIR      75  64  69 CALM      29.92R

...SOUTHERN MIDLANDS AND PEE DEE...

CITY           SKY/WX    TMP DP  RH WIND       PRES   REMARKS
GEORGETOWN     FAIR      73  72  94 S9        29.96F
KINGSTREE      FAIR      72  68  88 S7        29.94R
ORANGEBURG     CLOUDY    73  63  70 S6        29.93R
BARNWELL       FAIR      75  66  73 CALM      29.93R
AIKEN          MOCLDY    70  64  83 S5        29.96R
MANNING        MOCLDY    72  64  78 S20       29.95R
COLUMBIA       CLOUDY    75  63  66 S3        29.90R
SUMTER         CLOUDY    73  62  68 S7        29.91R
FLORENCE       CLOUDY    72  67  84 S8        29.93F
MYRTLE BEACH   PTCLDY    74  72  93 S12       29.97F
N MYRTLE BEACH CLOUDY    72  72 100 S13       29.96F

$$

GAZ063-065-086>088-099>101-113>116-118-119-134>141-150-280500-
...SOUTHEAST GEORGIA...

CITY           SKY/WX    TMP DP  RH WIND       PRES   REMARKS
SAVANNAH ARPT  MOCLDY    75  69  81 S10       29.95S
HUNTER AAF     CLEAR     76  76  99 S7        29.93S
FORT STEWART   CLOUDY    73  67  81 S3        29.93S
STATESBORO     CLOUDY    74  64  70 S7        29.92F
SYLVANIA       CLOUDY   N/A N/A N/A S7        29.92F
CLAXTON        FAIR      74  70  87 CALM      29.93F

...CSRA...CENTRAL AND FAR SOUTHEAST GEORGIA...

CITY           SKY/WX    TMP DP  RH WIND       PRES   REMARKS
THOMSON        PTCLDY    67  67  97 S5        29.95S FOG
AUGUSTA-BUSH   CLOUDY    71  68  90 CALM      29.91R
AUGUSTA-DANIEL MOCLDY    73  65  75 SE3       29.93R
SWAINSBORO     FAIR      75  64  69 SW6       29.93S
VIDALIA        CLOUDY    77  66  69 SW8       29.93S
EASTMAN        FAIR      76  59  54 SW3       29.94F
HAZLEHURST     FAIR      75  70  84 SW3       29.92S
ALMA           CLEAR     74  68  81 S6        29.93S
WAYCROSS       MOCLDY    75  71  86 S5        29.94S
JESUP          FAIR      72  64  78 CALM      29.95F
BAXLEY         FAIR      73  72  94 CALM      29.93S
BRUNSWICK      CLEAR     72  72 100 CALM      29.97F
SAINT SIMONS   MOCLDY    75  72  90 SE3       29.96S

$$

SCZ027-028-034-036>038-045-046-048>050-GAZ119-141-280500-
...LAKE AND SUPPLEMENTAL COASTAL OBSERVATIONS...

STATION/POSITION TIME  TEMP    WIND        PRES    WAVE   SWELL
                       AIR SEA DIR/SP/G            HT/PER HT/PER/DIR
                 (UTC) (F)     (DEG/KT/KT) (MB)    (FT/S) (FT/S/D)
WINYAH BAY       0345   74     190/  7     1015.0R
LAKE MURRAY      0420   72     180/  2/  3 1012.5
ACE BASIN NERRS  0345   75     180/  2     1014.0S
FORT PULASKI     0400   75 74  200/ 11/ 16 1014.4
SAPELO ISLAND    0330   76     180/ 11     1015.0R

$$

ANZ835-935-AMZ111-154-330-350-352-354-370-450-454-472-280500-
...C-MAN AND BUOY OBSERVATIONS...

STATION/POSITION TIME  TEMP    WIND        PRES    WAVE   SWELL
                       AIR SEA DIR/SP/G            HT/PER HT/PER/DIR
                 (UTC) (F)     (DEG/KT/KT) (MB)    (FT/S) (FT/S/D)
BUOY 41004       0400   75 74  180/ 14/ 16 1014.5
BUOY 41008       0350   74 73  200/  8/ 10 1014.7R   3/ 5   3/140/ 5
FOLLY BEACH CMAN 0400   74     210/ 12/ 13 1015.1R
CAPERS NEARSHORE 0408   74 73  210/ 10/ 16 1014.3R
FRIPP NEARSHORE  0408   73 72  210/ 10/ 12 1014.1F


STATION/POSITION TIME  TEMP    WIND        PRES    WAVE   SWELL
                       AIR SEA DIR/SP/G            HT/PER HT/PER/DIR
                 (UTC) (F)     (DEG/KT/KT) (MB)    (FT/S) (FT/S/D)
5E ST. MARYS GA  0400      74                N/A     3/ 5   2/100/13
FRYING PAN BUOY  0400   75 73  200/ 10/ 12 1015.8
BUOY 41025       0350   77 77  210/ 19/ 21 1015.5R   6/ 6   2/110/ 9
CAPE LOOKOUT NC  0400   73     200/  9/ 12 1015.5R
BUOY 41002       0350   75 75  170/ 12/ 14 1018.3R   4/ 6   3/ 70/ 8
BUOY 41010       0410   78 78  140/ 16/ 17 1016.0
ST AUGUSTINE FL  0400   76 76  190/  3/  4 1015.6R


$$



USA.gov is the U.S. government's official web portal to all federal, state and local government web resources and services.